CEDAR ISLAND NC US current weather conditions

sailwx.info

Wind from 342 at 2 knots gusting 6

Air temperature 14.4° C
Dewpoint 13.7° C

Last reported at 2020-Jan-25 14:25 UTC.
Time now 2020-Jan-25 15:22 UTC

Location: N 34°57' W 076°17'.
View on Google Maps.

See reports from other nearby stations

  
Tides and Currents Weather Stations Pressure Air Temp Water Temp Dewpoint Dewpoint Depression Visibility Wind Speed Wind Dir Waves Ship Positions
date/time (UTC)wind fromknots sea level pressurealtimeterstation pressurevisibilityair tempwater tempwave heightnotes
2020-Jan-25 14:25 342 2 gusting 6 14.4
2020-Jan-25 13:25 253 3 gusting 17 16.1
2020-Jan-25 12:25 213 3 gusting 12 15.6
2020-Jan-25 11:25 241 3 gusting 11 15.0
2020-Jan-25 10:25 173 4 gusting 10 15.6
2020-Jan-25 09:25 134 4 gusting 12 15.0
2020-Jan-25 08:25 149 4 gusting 13 15.6
2020-Jan-25 07:25 119 5 gusting 10 14.4
2020-Jan-25 06:25 121 4 gusting 10 14.4
2020-Jan-25 05:25 130 3 gusting 11 14.4
2020-Jan-25 04:25 118 3 gusting 9 14.4
2020-Jan-25 03:25 117 3 gusting 7 14.4
2020-Jan-25 02:25 125 3 gusting 8 13.9
2020-Jan-25 01:25 127 5 gusting 8 12.8
2020-Jan-25 00:25 099 1 gusting 4 12.2
2020-Jan-24 23:25 101 1 gusting 3 11.1
2020-Jan-24 22:25 088 2 gusting 5 11.7
2020-Jan-24 21:25 029 2 gusting 6 12.8
2020-Jan-24 20:25 014 2 gusting 6 12.2
2020-Jan-24 19:25 029 3 gusting 6 12.8
2020-Jan-24 18:25 038 2 gusting 6 13.9
2020-Jan-24 17:25 091 4 gusting 7 11.7
2020-Jan-24 16:25 019 1 gusting 7 12.8
2020-Jan-24 15:25 046 3 gusting 6 14.4
2020-Jan-24 14:25 004 2 gusting 7 12.2
2020-Jan-24 13:25 064 2 gusting 7 10.6
2020-Jan-24 12:25 077 4 gusting 6 10.6
2020-Jan-24 11:25 017 2 gusting 5 9.4
2020-Jan-24 10:25 008 1 gusting 6 9.4
2020-Jan-24 09:25 103 1 gusting 5 8.9
2020-Jan-24 08:25 108 0 gusting 6 8.9
2020-Jan-24 07:25 030 1 gusting 6 9.4
2020-Jan-24 06:25 349 2 gusting 5 8.9
2020-Jan-24 05:25 016 2 gusting 6 9.4
2020-Jan-24 04:25 057 3 gusting 7 9.4
2020-Jan-24 03:25 043 3 gusting 7 9.4
2020-Jan-24 02:25 048 4 gusting 8 9.4
2020-Jan-24 01:25 041 3 gusting 9 9.4
2020-Jan-24 00:25 042 3 gusting 7 9.4
2020-Jan-23 23:25 340 1 gusting 6 9.4
2020-Jan-23 22:25 358 2 gusting 9 10.0
2020-Jan-23 21:25 012 2 gusting 7 10.6
2020-Jan-23 20:25 001 1 gusting 7 11.7
2020-Jan-23 19:25 028 4 gusting 8 11.7
2020-Jan-23 18:25 059 3 gusting 10 12.2
2020-Jan-23 17:25 028 4 gusting 10 12.2
2020-Jan-23 16:25 028 4 gusting 12 11.1
2020-Jan-23 15:25 026 5 gusting 9 10.6